Regional Weather Roundup
Issued by NWS

Home | Current Version | Previous Version | Graphics & Text | Print | Product List | Glossary On
Versions: 1 2 3 4 5 6 7 8 9 10 11 12 13 14 15 16 17 18 19 20 21 22 23 24 25 26 27 28 29 30 31 32 33 34 35 36 37 38 39 40 41 42 43 44 45 46 47 48 49 50
800
ASUS43 KDMX 090106
RWRIA

WEATHER ROUNDUP FOR IOWA
NATIONAL WEATHER SERVICE DES MOINES IA
700 PM CST THU DEC 08 2016

NOTE: "FAIR" INDICATES FEW OR NO CLOUDS BELOW 12,000 FEET WITH NO
SIGNIFICANT WEATHER AND/OR OBSTRUCTIONS TO VISIBILITY.

* - THESE STATIONS ARE NOT NWS STATIONS...THUS NOT UNDER NWS
QUALITY CONTROL.  THEY ALSO DO NOT REPORT WEATHER SUCH
AS PRECIPITATION OR FOG.

IAZ001>003-012>014-020>022-031>034-043>046-090200-
   NORTHWEST IOWA

CITY           SKY/WX    TMP DP  RH WIND       PRES   REMARKS
CARROLL *      CLEAR     18  10  73 W14       30.56S WCI   4
CHEROKEE *     CLEAR     16   8  72 NW7       30.58R WCI   6
DENISON *      CLEAR     16   9  73 NW9       30.57S WCI   4
LE MARS *      CLEAR     16   7  67 NW10      30.62R WCI   3
ORANGE CITY *  CLEAR     14   9  79 NW10      30.57S WCI   1
SHELDON *      CLEAR     14   9  79 NW13      30.55S WCI   0
SIOUX CITY     CLEAR     16   7  67 NW9       30.63R WCI   4
SPENCER        CLEAR     13   9  84 W18       30.55R WCI  -4
STORM LAKE *   CLEAR     14   9  79 NW13      30.55R WCI   0
$$

IAZ055>058-069>071-079>083-090>094-090200-
   SOUTHWEST IOWA

CITY           SKY/WX    TMP DP  RH WIND       PRES   REMARKS
ATLANTIC *     CLEAR     18   9  68 NW8       30.60R WCI   7
AUDUBON *      CLEAR     16   9  73 W5        30.58R WCI   9
CLARINDA *     CLEAR     19  10  68 NW7       30.64R WCI  10
COUNCIL BLFS * CLEAR     19   9  63 NW10      30.61S WCI   8
CRESTON *      CLEAR     14   9  79 NW9       30.58R WCI   2
HARLAN  *      CLEAR     16   9  73 NW12      30.63S WCI   3
LAMONI         CLEAR     16   9  74 W9        30.57R WCI   4
RED OAK *      CLEAR     16   9  73 NW7       30.62S WCI   6
SHENANDOAH *   CLEAR     18  10  73 W3        30.64R
$$

IAZ047>049-059>061-072>074-084-090200-
   CENTRAL IOWA

CITY           SKY/WX    TMP DP  RH WIND       PRES   REMARKS
AMES           CLOUDY    21  13  71 NW13      30.54R WCI   9
ANKENY *       PTCLDY    21  12  68 NW12      30.57R WCI   9
BOONE *        MOCLDY    19  10  68 NW14      30.52R WCI   6
CHARITON *     CLEAR     18  10  73 W7        30.55R WCI   8
DES MOINES     CLEAR     21  10  62 NW14      30.56R WCI   8
GRINNELL*      CLOUDY    23  14  69 W15       30.52R WCI  10
KNOXVILLE *    CLEAR     18  10  73 W9        30.53S WCI   6
MARSHALLTOWN   CLEAR     20  12  71 NW15      30.51R WCI   6
NEWTON *       CLOUDY    21  12  68 W10       30.52S WCI  10
PELLA *        MOCLDY    21  12  69 W9        30.55R WCI  11
PERRY *          N/A     19  13  75 W14       30.56S WCI   6
$$

IAZ004>006-015-016-023>025-035-036-090200-
   NORTH CENTRAL IOWA

CITY           SKY/WX    TMP DP  RH WIND       PRES   REMARKS
ALGONA *       FLURRIES  18  10  73 NW14      30.52R WCI   4
CLARION *      CLOUDY    18  12  79 NW13      30.52R WCI   4
ESTHERVILLE    CLEAR     14   9  80 NW13      30.52R WCI   0
FORT DODGE *   CLEAR     18   7  62 W7        30.54S WCI   8
MASON CITY     LGT SNOW  18  11  74 NW15      30.50R WCI   4
FOREST CITY *  CLOUDY    18  10  73 NW21G26   30.50R WCI   1
WEBSTER CITY * CLOUDY    19  14  79 NW14      30.51R WCI   6
IOWA FALLS *   CLOUDY    21  14  74 NW18G24   30.51S WCI   6
$$

IAZ007>011-017>019-026>030-037>042-050>054-066-090200-
   NORTHEAST IOWA

CITY           SKY/WX    TMP DP  RH WIND       PRES   REMARKS
CEDAR RAPIDS   CLOUDY    20  18  92 NW9       30.48R WCI   9
CHARLES CITY * FLURRIES  19  10  68 NW20G26   30.48R WCI   4
CLINTON *      FLURRIES  21  15  78 NW16G28   30.47R WCI   7
DECORAH *      FLURRIES  19  16  86 W9        30.42R WCI   9
DUBUQUE        CLOUDY    19  14  81 W18       30.43R WCI   4
MONTICELLO *   CLOUDY    21  12  68 W13       30.47S WCI   9
OELWEIN *      CLOUDY    19  12  73 NW22      30.47S WCI   3
WATERLOO       LGT SNOW  20  15  81 NW9       30.49R WCI   9
$$

IAZ064-065-067-068-078-090200-
   EAST CENTRAL IOWA

CITY           SKY/WX    TMP DP  RH WIND       PRES   REMARKS
DAVENPORT      FLURRIES  21  16  81 W15       30.48R WCI   8
IOWA CITY      CLOUDY    23  14  68 W7        30.52S WCI  15
MUSCATINE *    CLOUDY    23  14  68 NW9       30.53S WCI  13
QUAD CITIES    CLOUDY    23  13  65 W13       30.49R WCI  11
$$

IAZ062-063-075>077-085>089-095>099-090200-
   SOUTHEAST IOWA

CITY           SKY/WX    TMP DP  RH WIND       PRES   REMARKS
BURLINGTON     CLOUDY    22  13  68 W9        30.53R WCI  12
FAIRFIELD *    CLOUDY    19  10  68 W6        30.53R WCI  11
FORT MADISON * CLOUDY    21  12  68 W7        30.54R WCI  13
KEOKUK *       CLEAR     21  12  68 W6        30.55R WCI  14
OSKALOOSA *    CLOUDY    20  14  78 W8        30.54R WCI  10
CENTERVILLE *    N/A     18  10  73 CALM      30.57R
OTTUMWA        MOCLDY    19  11  70 W7        30.54R WCI  10
WASHINGTON *   CLOUDY    21  14  73 W8        30.53S WCI  12
$$

ABBREVIATIONS USED IN REMARKS
   TC - TEMPERATURES IN CELSIUS
  WCI - WIND CHILL INDEX
   HX - HEAT INDEX
  VSB - VISIBILITY
$$





USA.gov is the U.S. government's official web portal to all federal, state and local government web resources and services.